{"data":{"norad_id":66372,"intl_designator":"2025-254AA","name":"STARLINK-35821","alt_names":[],"object_type":"PAYLOAD","status":"ACTIVE","operator":null,"country":"US","launch_date":"2025-11-06","launch_site_code":"AFWTR","launch_vehicle":null,"mission":null,"orbit_class":"UNKNOWN","rcs_meters":null,"size_class":null,"mass_kg":null,"dimensions":null,"purposes":["comms"],"wikipedia_slug":null,"has_3d_model":false,"image_url":null,"decayed_at":null,"tle_current":{"epoch":"2026-05-25T04:58:43.757760Z","epoch_age_seconds":64085,"freshness":"FRESH","line1":"1 66372U 25254AA  26145.20745090  .00010825  00000+0  37692-3 0  9992","line2":"2 66372  53.1579 234.6682 0001275 105.2354 254.8788 15.30212341 30728","mean_motion":15.30212341,"eccentricity":0.0001275,"inclination_deg":53.1579,"raan_deg":234.6682,"arg_perigee_deg":105.2354,"mean_anomaly_deg":254.8788,"bstar":0.00037692,"rev_number":3072,"period_min":94.104586756826,"perigee_km":474.30442397469,"apogee_km":476.05201935621,"semimajor_km":6853.3152216654,"source":"CELESTRAK","updated_at":"2026-05-25T13:38:21.198909Z"}}}